| time (UTC) | temp F | wind direction | speed knots | gust knots | rain 1hr in | rain 24hr in | rain mn in | humidity % | barometer mb |
| 20260507045137 | 64 | 267 | 5.2 | 11.3 | 0.00 | 0.00 | 0.00 | 48 | 1015.8 |
| 20260507044628 | 64 | 247 | 5.2 | 11.3 | 0.00 | 0.00 | 0.00 | 47 | 1015.8 |
| 20260507044123 | 64 | 267 | 5.2 | 10.4 | 0.00 | 0.00 | 0.00 | 47 | 1015.8 |
| 20260507043619 | 64 | 271 | 5.2 | 9.6 | 0.00 | 0.00 | 0.00 | 46 | 1015.8 |
| 20260507043347 | 64 | 255 | 5.2 | 10.4 | 0.00 | 0.00 | 0.00 | 46 | 1015.8 |
| 20260507042610 | 64 | 249 | 5.2 | 10.4 | 0.00 | 0.00 | 0.00 | 46 | 1015.8 |
| 20260507042334 | 64 | 250 | 5.2 | 14.8 | 0.00 | 0.00 | 0.00 | 46 | 1015.8 |
| 20260507041601 | 65 | 288 | 5.2 | 14.8 | 0.00 | 0.00 | 0.00 | 46 | 1015.7 |
| 20260507041048 | 65 | 269 | 5.2 | 12.2 | 0.00 | 0.00 | 0.00 | 45 | 1015.7 |
| 20260507040539 | 65 | 259 | 5.2 | 11.3 | 0.00 | 0.00 | 0.00 | 45 | 1015.6 |
| 20260507040034 | 65 | 294 | 6.1 | 12.2 | 0.00 | 0.00 | 0.00 | 44 | 1015.5 |
| 20260507035532 | 65 | 281 | 6.1 | 13.0 | 0.00 | 0.00 | 0.00 | 43 | 1015.5 |
| 20260507035026 | 65 | 282 | 5.2 | 9.6 | 0.00 | 0.00 | 0.00 | 43 | 1015.4 |
| 20260507034516 | 66 | 273 | 5.2 | 9.6 | 0.00 | 0.00 | 0.00 | 43 | 1015.4 |
| 20260507034012 | 66 | 266 | 5.2 | 10.4 | 0.00 | 0.00 | 0.00 | 42 | 1015.3 |
| 20260507033507 | 66 | 286 | 5.2 | 10.4 | 0.00 | 0.00 | 0.00 | 42 | 1015.3 |
| 20260507033004 | 67 | 258 | 5.2 | 9.6 | 0.00 | 0.00 | 0.00 | 42 | 1015.2 |
| 20260507032457 | 67 | 261 | 4.3 | 9.6 | 0.00 | 0.00 | 0.00 | 41 | 1015.2 |
| 20260507031948 | 67 | 282 | 5.2 | 10.4 | 0.00 | 0.00 | 0.00 | 40 | 1015.2 |
| 20260507031442 | 68 | 254 | 5.2 | 12.2 | 0.00 | 0.00 | 0.00 | 39 | 1015.2 |
| 20260507030935 | 68 | 288 | 5.2 | 12.2 | 0.00 | 0.00 | 0.00 | 39 | 1015.1 |
| 20260507030429 | 69 | 274 | 6.1 | 10.4 | 0.00 | 0.00 | 0.00 | 39 | 1015.1 |
| 20260507025924 | 69 | 260 | 6.1 | 10.4 | 0.00 | 0.00 | 0.00 | 38 | 1014.8 |
| 20260507025419 | 70 | 281 | 6.1 | 11.3 | 0.00 | 0.00 | 0.00 | 39 | 1014.8 |
| 20260507024912 | 70 | 279 | 6.1 | 12.2 | 0.00 | 0.00 | 0.00 | 39 | 1014.8 |
| 20260507024647 | 70 | 294 | 6.1 | 12.2 | 0.00 | 0.00 | 0.00 | 39 | 1014.8 |
| 20260507023903 | 70 | 266 | 6.1 | 11.3 | 0.00 | 0.00 | 0.00 | 39 | 1014.7 |
| 20260507023632 | 70 | 299 | 5.2 | 11.3 | 0.00 | 0.00 | 0.00 | 39 | 1014.7 |
| 20260507023134 | 70 | 271 | 5.2 | 9.6 | 0.00 | 0.00 | 0.00 | 39 | 1014.6 |
| 20260507022358 | 70 | 287 | 6.1 | 12.2 | 0.00 | 0.00 | 0.00 | 39 | 1014.6 |
| 20260507022133 | 71 | 292 | 5.2 | 12.2 | 0.00 | 0.00 | 0.00 | 38 | 1014.5 |
| 20260507021359 | 71 | 309 | 3.5 | 9.6 | 0.00 | 0.00 | 0.00 | 38 | 1014.5 |
| 20260507020900 | 71 | 287 | 4.3 | 8.7 | 0.00 | 0.00 | 0.00 | 38 | 1014.5 |
| 20260507020402 | 71 | 315 | 4.3 | 8.7 | 0.00 | 0.00 | 0.00 | 38 | 1014.5 |
| 20260507015900 | 72 | 268 | 3.5 | 8.7 | 0.00 | 0.00 | 0.00 | 38 | 1014.6 |
| 20260507015444 | 72 | 276 | 3.5 | 8.7 | 0.00 | 0.00 | 0.00 | 37 | 1014.6 |
| 20260507015211 | 72 | 321 | 3.5 | 7.8 | 0.00 | 0.00 | 0.00 | 37 | 1014.5 |
| 20260507013900 | 72 | 274 | 3.5 | 9.6 | 0.00 | 0.00 | 0.00 | 36 | 1014.5 |
| 20260507013359 | 72 | 306 | 5.2 | 13.9 | 0.00 | 0.00 | 0.00 | 35 | 1014.5 |
| 20260507013121 | 73 | 290 | 6.1 | 13.9 | 0.00 | 0.00 | 0.00 | 35 | 1014.5 |
| 20260507012358 | 73 | 282 | 6.1 | 13.0 | 0.00 | 0.00 | 0.00 | 35 | 1014.6 |
| 20260507012113 | 73 | 276 | 6.1 | 13.9 | 0.00 | 0.00 | 0.00 | 35 | 1014.5 |
| 20260507011859 | 73 | 276 | 6.1 | 13.9 | 0.00 | 0.00 | 0.00 | 35 | 1014.5 |
| 20260507011357 | 74 | 319 | 7.0 | 14.8 | 0.00 | 0.00 | 0.00 | 34 | 1014.4 |
| 20260507010858 | 74 | 277 | 7.8 | 16.5 | 0.00 | 0.00 | 0.00 | 34 | 1014.4 |
| 20260507010638 | 74 | 319 | 7.8 | 16.5 | 0.00 | 0.00 | 0.00 | 33 | 1014.4 |
| 20260507005929 | 74 | 249 | 8.7 | 16.5 | 0.00 | 0.00 | 0.00 | 33 | 1014.4 |
| 20260507005916 | 74 | 273 | 8.7 | 16.5 | 0.00 | 0.00 | 0.00 | 33 | 1014.3 |
| 20260507004849 | 75 | 304 | 7.8 | 15.6 | 0.00 | 0.00 | 0.00 | 32 | 1014.3 |
| 20260507004348 | 75 | 294 | 8.7 | 18.2 | 0.00 | 0.00 | 0.00 | 33 | 1014.3 |
| 20260507003848 | 76 | 294 | 7.8 | 18.2 | 0.00 | 0.00 | 0.00 | 32 | 1014.2 |
| 20260507003347 | 76 | 281 | 7.8 | 14.8 | 0.00 | 0.00 | 0.00 | 32 | 1014.0 |
| 20260507002845 | 76 | 306 | 8.7 | 18.2 | 0.00 | 0.00 | 0.00 | 32 | 1013.9 |
| 20260507002345 | 76 | 318 | 9.6 | 18.2 | 0.00 | 0.00 | 0.00 | 32 | 1014.0 |
| 20260507002115 | 77 | 5 | 8.7 | 16.5 | 0.00 | 0.00 | 0.00 | 31 | 1013.9 |
| 20260507001615 | 77 | 299 | 9.6 | 17.4 | 0.00 | 0.00 | 0.00 | 31 | 1014.0 |
| 20260507000846 | 77 | 302 | 9.6 | 17.4 | 0.00 | 0.00 | 0.00 | 32 | 1013.9 |
| 20260507000343 | 77 | 284 | 9.6 | 18.2 | 0.00 | 0.00 | 0.00 | 31 | 1013.8 |
| 20260506235844 | 77 | 306 | 9.6 | 18.2 | 0.00 | 0.00 | 0.00 | 32 | 1013.9 |
| 20260506235343 | 77 | 311 | 9.6 | 16.5 | 0.00 | 0.00 | 0.00 | 33 | 1013.8 |
| 20260506234841 | 77 | 269 | 8.7 | 16.5 | 0.00 | 0.00 | 0.00 | 33 | 1013.9 |
| 20260506234336 | 78 | 300 | 8.7 | 16.5 | 0.00 | 0.00 | 0.00 | 33 | 1013.6 |
| 20260506233828 | 78 | 329 | 8.7 | 17.4 | 0.00 | 0.00 | 0.00 | 34 | 1013.6 |
| 20260506233322 | 78 | 277 | 9.6 | 17.4 | 0.00 | 0.00 | 0.00 | 32 | 1013.6 |
| 20260506232818 | 79 | 309 | 7.8 | 15.6 | 0.00 | 0.00 | 0.00 | 32 | 1013.6 |
| 20260506232310 | 79 | 276 | 7.0 | 15.6 | 0.00 | 0.00 | 0.00 | 30 | 1013.5 |
| 20260506231804 | 79 | 294 | 7.0 | 13.9 | 0.00 | 0.00 | 0.00 | 30 | 1013.5 |
| 20260506231530 | 79 | 336 | 7.8 | 14.8 | 0.00 | 0.00 | 0.00 | 30 | 1013.6 |
| 20260506230957 | 79 | 325 | 8.7 | 15.6 | 0.00 | 0.00 | 0.00 | 30 | 1013.6 |
| 20260506225739 | 80 | 309 | 8.7 | 15.6 | 0.00 | 0.00 | 0.00 | 31 | 1013.5 |
| 20260506225236 | 80 | 264 | 7.8 | 15.6 | 0.00 | 0.00 | 0.00 | 31 | 1013.6 |
| 20260506224729 | 80 | 274 | 7.8 | 17.4 | 0.00 | 0.00 | 0.00 | 31 | 1013.6 |
| 20260506224225 | 80 | 311 | 7.8 | 17.4 | 0.00 | 0.00 | 0.00 | 31 | 1013.6 |
| 20260506223947 | 80 | 288 | 8.7 | 17.4 | 0.00 | 0.00 | 0.00 | 31 | 1013.6 |
| 20260506223213 | 80 | 261 | 8.7 | 15.6 | 0.00 | 0.00 | 0.00 | 31 | 1013.8 |
| 20260506222704 | 80 | 286 | 7.8 | 15.6 | 0.00 | 0.00 | 0.00 | 31 | 1013.8 |
| 20260506222159 | 80 | 293 | 7.8 | 15.6 | 0.00 | 0.00 | 0.00 | 31 | 1013.8 |
| 20260506221914 | 80 | 338 | 7.8 | 15.6 | 0.00 | 0.00 | 0.00 | 31 | 1013.9 |
| 20260506221146 | 80 | 266 | 7.0 | 14.8 | 0.00 | 0.00 | 0.00 | 31 | 1013.9 |
| 20260506220645 | 80 | 272 | 7.8 | 13.9 | 0.00 | 0.00 | 0.00 | 31 | 1013.8 |
| 20260506220135 | 81 | 315 | 7.8 | 13.9 | 0.00 | 0.00 | 0.00 | 31 | 1013.8 |
| 20260506215732 | 81 | 249 | 7.8 | 13.9 | 0.00 | 0.00 | 0.00 | 29 | 1013.9 |
| 20260506215726 | 81 | 288 | 7.8 | 13.9 | 0.00 | 0.00 | 0.00 | 30 | 1013.9 |
| 20260506214618 | 81 | 295 | 7.0 | 13.9 | 0.00 | 0.00 | 0.00 | 30 | 1013.8 |
| 20260506214110 | 81 | 313 | 6.1 | 13.0 | 0.00 | 0.00 | 0.00 | 29 | 1013.8 |
| 20260506213604 | 81 | 325 | 7.0 | 12.2 | 0.00 | 0.00 | 0.00 | 29 | 1013.9 |
| 20260506213058 | 82 | 292 | 6.1 | 12.2 | 0.00 | 0.00 | 0.00 | 28 | 1013.9 |
| 20260506212816 | 82 | 273 | 6.1 | 13.0 | 0.00 | 0.00 | 0.00 | 29 | 1013.9 |
| 20260506212555 | 82 | 273 | 6.1 | 13.0 | 0.00 | 0.00 | 0.00 | 29 | 1013.9 |
| 20260506212049 | 81 | 243 | 6.1 | 13.0 | 0.00 | 0.00 | 0.00 | 27 | 1013.9 |
| 20260506211817 | 82 | 316 | 5.2 | 10.4 | 0.00 | 0.00 | 0.00 | 26 | 1013.8 |
| 20260506211307 | 81 | 248 | 5.2 | 10.4 | 0.00 | 0.00 | 0.00 | 28 | 1013.9 |
| 20260506210528 | 81 | 291 | 3.5 | 10.4 | 0.00 | 0.00 | 0.00 | 27 | 1013.9 |
| 20260506210022 | 81 | 334 | 3.5 | 8.7 | 0.00 | 0.00 | 0.00 | 27 | 1013.9 |
| 20260506205518 | 81 | 322 | 3.5 | 9.6 | 0.00 | 0.00 | 0.00 | 27 | 1014.0 |
| 20260506205018 | 81 | 327 | 3.5 | 9.6 | 0.00 | 0.00 | 0.00 | 26 | 1014.0 |
| 20260506204518 | 81 | 318 | 3.5 | 9.6 | 0.00 | 0.00 | 0.00 | 26 | 1014.1 |
| 20260506204021 | 80 | 316 | 3.5 | 10.4 | 0.00 | 0.00 | 0.00 | 27 | 1014.1 |
| 20260506203519 | 80 | 219 | 3.5 | 10.4 | 0.00 | 0.00 | 0.00 | 26 | 1014.2 |
| 20260506203019 | 80 | 315 | 3.5 | 7.8 | 0.00 | 0.00 | 0.00 | 26 | 1014.2 |
| 20260506202825 | 81 | 12 | 4.3 | 9.6 | 0.00 | 0.00 | 0.00 | 26 | 1014.2 |
| 20260506202821 | 81 | 355 | 4.3 | 9.6 | 0.00 | 0.00 | 0.00 | 26 | 1014.3 |
| 20260506201516 | 80 | 254 | 3.5 | 8.7 | 0.00 | 0.00 | 0.00 | 27 | 1014.2 |
| 20260506201300 | 79 | 331 | 2.6 | 11.3 | 0.00 | 0.00 | 0.00 | 29 | 1014.2 |
| 20260506200758 | 79 | 17 | 3.5 | 11.3 | 0.00 | 0.00 | 0.00 | 29 | 1014.2 |
| 20260506200017 | 79 | 276 | 4.3 | 11.3 | 0.00 | 0.00 | 0.00 | 28 | 1014.4 |
| 20260506195512 | 79 | 298 | 3.5 | 9.6 | 0.00 | 0.00 | 0.00 | 27 | 1014.4 |
| 20260506195012 | 79 | 350 | 4.3 | 13.0 | 0.00 | 0.00 | 0.00 | 28 | 1014.4 |
| 20260506194512 | 78 | 244 | 4.3 | 13.0 | 0.00 | 0.00 | 0.00 | 29 | 1014.4 |
| 20260506194257 | 78 | 219 | 3.5 | 11.3 | 0.00 | 0.00 | 0.00 | 29 | 1014.6 |
| 20260506193512 | 78 | 303 | 3.5 | 7.8 | 0.00 | 0.00 | 0.00 | 31 | 1014.7 |
| 20260506193258 | 78 | 262 | 5.2 | 9.6 | 0.00 | 0.00 | 0.00 | 30 | 1014.8 |
| 20260506192758 | 78 | 226 | 5.2 | 9.6 | 0.00 | 0.00 | 0.00 | 30 | 1015.0 |
| 20260506192025 | 78 | 263 | 5.2 | 13.9 | 0.00 | 0.00 | 0.00 | 31 | 1014.8 |
| 20260506192011 | 78 | 215 | 5.2 | 11.3 | 0.00 | 0.00 | 0.00 | 31 | 1014.8 |
| 20260506191010 | 78 | 301 | 4.3 | 13.9 | 0.00 | 0.00 | 0.00 | 31 | 1014.8 |
| 20260506190518 | 78 | 241 | 4.3 | 10.4 | 0.00 | 0.00 | 0.00 | 32 | 1015.0 |
| 20260506190011 | 77 | 290 | 3.5 | 9.6 | 0.00 | 0.00 | 0.00 | 31 | 1015.1 |
| 20260506185744 | 77 | 265 | 2.6 | 9.6 | 0.00 | 0.00 | 0.00 | 30 | 1015.1 |
| 20260506185011 | 77 | 130 | 3.5 | 8.7 | 0.00 | 0.00 | 0.00 | 31 | 1015.0 |
| 20260506184510 | 77 | 233 | 3.5 | 8.7 | 0.00 | 0.00 | 0.00 | 31 | 1015.2 |
| 20260506184009 | 78 | 242 | 2.6 | 7.0 | 0.00 | 0.00 | 0.00 | 31 | 1015.1 |
| 20260506183509 | 77 | 140 | 1.7 | 7.0 | 0.00 | 0.00 | 0.00 | 34 | 1015.1 |
| 20260506183009 | 77 | 117 | 1.7 | 4.3 | 0.00 | 0.00 | 0.00 | 33 | 1015.1 |
| 20260506182510 | 76 | 83 | 1.7 | 6.1 | 0.00 | 0.00 | 0.00 | 34 | 1015.2 |
| 20260506182010 | 76 | 252 | 1.7 | 6.1 | 0.00 | 0.00 | 0.00 | 34 | 1015.2 |
| 20260506181510 | 76 | 74 | 0.9 | 3.5 | 0.00 | 0.00 | 0.00 | 36 | 1015.2 |
| 20260506181010 | 75 | 86 | 1.7 | 4.3 | 0.00 | 0.00 | 0.00 | 36 | 1015.3 |
| 20260506180507 | 74 | 11 | 0.9 | 4.3 | 0.00 | 0.00 | 0.00 | 38 | 1015.4 |
| 20260506180248 | 74 | 315 | 1.7 | 4.3 | 0.00 | 0.00 | 0.00 | 38 | 1015.4 |
| 20260506175515 | 74 | 277 | 1.7 | 4.3 | 0.00 | 0.00 | 0.00 | 38 | 1015.5 |
| 20260506175008 | 74 | 32 | 0.9 | 4.3 | 0.00 | 0.00 | 0.00 | 38 | 1015.5 |
| 20260506174717 | 74 | 312 | 1.7 | 4.3 | 0.00 | 0.00 | 0.00 | 38 | 1015.4 |
| 20260506174011 | 73 | 56 | 0.9 | 3.5 | 0.00 | 0.00 | 0.00 | 39 | 1015.4 |
| 20260506174008 | 74 | 75 | 1.7 | 4.3 | 0.00 | 0.00 | 0.00 | 40 | 1015.5 |
| 20260506172943 | 73 | 29 | 0.9 | 3.5 | 0.00 | 0.00 | 0.00 | 39 | 1015.4 |
| 20260506172434 | 74 | 13 | 0.9 | 3.5 | 0.00 | 0.00 | 0.00 | 39 | 1015.5 |
| 20260506172204 | 73 | 84 | 1.7 | 3.5 | 0.00 | 0.00 | 0.00 | 41 | 1015.5 |
| 20260506171422 | 73 | 127 | 1.7 | 5.2 | 0.00 | 0.00 | 0.00 | 41 | 1015.4 |
| 20260506170921 | 72 | 102 | 1.7 | 5.2 | 0.00 | 0.00 | 0.00 | 43 | 1015.4 |
| 20260506170642 | 71 | 132 | 0.9 | 3.5 | 0.00 | 0.00 | 0.00 | 44 | 1015.5 |
| 20260506165907 | 70 | 140 | 0.9 | 3.5 | 0.00 | 0.00 | 0.00 | 45 | 1015.6 |
| 20260506165359 | 69 | 194 | 0.9 | 3.5 | 0.00 | 0.00 | 0.00 | 46 | 1015.6 |
| 20260506165113 | 69 | 218 | 1.7 | 3.5 | 0.00 | 0.00 | 0.00 | 45 | 1015.6 |
| 20260506164346 | 69 | 308 | 0.9 | 3.5 | 0.00 | 0.00 | 0.00 | 47 | 1015.6 |
| 20260506163840 | 68 | 289 | 1.7 | 5.2 | 0.00 | 0.00 | 0.00 | 47 | 1015.6 |
| 20260506163334 | 68 | 283 | 1.7 | 5.2 | 0.00 | 0.00 | 0.00 | 49 | 1015.6 |
| 20260506163105 | 67 | 350 | 0.9 | 3.5 | 0.00 | 0.00 | 0.00 | 50 | 1015.6 |
| 20260506162321 | 67 | 257 | 1.7 | 3.5 | 0.00 | 0.00 | 0.00 | 51 | 1015.7 |
| 20260506161816 | 66 | 237 | 0.9 | 5.2 | 0.00 | 0.00 | 0.00 | 52 | 1015.7 |
| 20260506161533 | 66 | 237 | 0.9 | 2.6 | 0.00 | 0.00 | 0.00 | 53 | 1015.7 |
| 20260506161313 | 66 | 237 | 0.9 | 2.6 | 0.00 | 0.00 | 0.00 | 53 | 1015.7 |
| 20260506160809 | 66 | 97 | 0.9 | 3.5 | 0.00 | 0.00 | 0.00 | 54 | 1015.7 |
| 20260506160259 | 66 | 96 | 0.9 | 3.5 | 0.00 | 0.00 | 0.00 | 53 | 1015.8 |
| 20260506160012 | 66 | 108 | 0.0 | 2.6 | 0.00 | 0.00 | 0.00 | 55 | 1015.7 |
| 20260506155247 | 65 | 121 | 0.0 | 0.0 | 0.00 | 0.00 | 0.00 | 55 | 1015.7 |
| 20260506154741 | 64 | 121 | 0.0 | 1.7 | 0.00 | 0.00 | 0.00 | 56 | 1015.6 |
| 20260506154234 | 63 | 123 | 0.9 | 2.6 | 0.00 | 0.00 | 0.00 | 57 | 1015.7 |
| 20260506153734 | 62 | 124 | 0.9 | 2.6 | 0.00 | 0.00 | 0.00 | 59 | 1015.7 |
| 20260506153226 | 61 | 125 | 0.9 | 2.6 | 0.00 | 0.00 | 0.00 | 60 | 1015.7 |
| 20260506152720 | 60 | 140 | 0.9 | 2.6 | 0.00 | 0.00 | 0.00 | 60 | 1015.7 |
| 20260506152448 | 60 | 141 | 1.7 | 5.2 | 0.00 | 0.00 | 0.00 | 62 | 1015.8 |
| 20260506151706 | 59 | 123 | 1.7 | 5.2 | 0.00 | 0.00 | 0.00 | 63 | 1015.7 |
| 20260506151200 | 58 | 130 | 2.6 | 6.1 | 0.00 | 0.00 | 0.00 | 64 | 1015.7 |
| 20260506150657 | 57 | 134 | 2.6 | 7.0 | 0.00 | 0.00 | 0.00 | 66 | 1015.6 |
| 20260506150204 | 56 | 135 | 2.6 | 5.2 | 0.00 | 0.00 | 0.00 | 68 | 1015.6 |
| 20260506150159 | 57 | 124 | 2.6 | 7.0 | 0.00 | 0.00 | 0.00 | 66 | 1015.5 |
| 20260506145159 | 55 | 159 | 2.6 | 5.2 | 0.00 | 0.00 | 0.00 | 69 | 1015.5 |
| 20260506144703 | 54 | 128 | 2.6 | 7.0 | 0.00 | 0.00 | 0.00 | 71 | 1015.5 |
| 20260506144658 | 55 | 141 | 2.6 | 5.2 | 0.00 | 0.00 | 0.00 | 70 | 1015.6 |
| 20260506144446 | 54 | 128 | 2.6 | 7.0 | 0.00 | 0.00 | 0.00 | 71 | 1015.5 |
| 20260506143701 | 53 | 165 | 3.5 | 7.0 | 0.00 | 0.00 | 0.00 | 72 | 1015.4 |
| 20260506143159 | 52 | 140 | 2.6 | 7.0 | 0.00 | 0.00 | 0.00 | 73 | 1015.4 |
| 20260506142657 | 52 | 150 | 3.5 | 7.0 | 0.00 | 0.00 | 0.00 | 73 | 1015.3 |
| 20260506142200 | 52 | 160 | 3.5 | 7.8 | 0.00 | 0.00 | 0.00 | 74 | 1015.3 |
| 20260506141657 | 51 | 143 | 3.5 | 7.8 | 0.00 | 0.00 | 0.00 | 74 | 1015.2 |
| 20260506141159 | 51 | 161 | 3.5 | 7.0 | 0.00 | 0.00 | 0.00 | 75 | 1015.2 |
| 20260506140920 | 51 | 150 | 3.5 | 7.0 | 0.00 | 0.00 | 0.00 | 75 | 1015.1 |
| 20260506140159 | 51 | 150 | 3.5 | 8.7 | 0.00 | 0.00 | 0.00 | 76 | 1015.1 |
| 20260506135657 | 50 | 157 | 3.5 | 8.7 | 0.00 | 0.00 | 0.00 | 76 | 1015.0 |
| 20260506135158 | 50 | 142 | 3.5 | 7.8 | 0.00 | 0.00 | 0.00 | 76 | 1015.0 |
| 20260506134659 | 50 | 146 | 3.5 | 7.8 | 0.00 | 0.00 | 0.00 | 77 | 1014.8 |
| 20260506134158 | 50 | 144 | 3.5 | 7.8 | 0.00 | 0.00 | 0.00 | 77 | 1014.8 |
| 20260506133657 | 50 | 132 | 3.5 | 7.8 | 0.00 | 0.00 | 0.00 | 77 | 1014.7 |
| 20260506133438 | 50 | 134 | 3.5 | 7.8 | 0.00 | 0.00 | 0.00 | 77 | 1014.7 |
| 20260506132942 | 50 | 137 | 3.5 | 7.0 | 0.00 | 0.00 | 0.00 | 77 | 1014.6 |
| 20260506132158 | 50 | 149 | 3.5 | 7.8 | 0.00 | 0.00 | 0.00 | 77 | 1014.7 |
| 20260506131707 | 49 | 156 | 4.3 | 8.7 | 0.00 | 0.00 | 0.00 | 77 | 1014.6 |
| 20260506131446 | 49 | 151 | 3.5 | 8.7 | 0.00 | 0.00 | 0.00 | 78 | 1014.5 |
| 20260506130701 | 49 | 148 | 3.5 | 7.8 | 0.00 | 0.00 | 0.00 | 78 | 1014.5 |
| 20260506130159 | 49 | 131 | 3.5 | 7.0 | 0.00 | 0.00 | 0.00 | 77 | 1014.4 |
| 20260506125658 | 49 | 145 | 3.5 | 7.8 | 0.00 | 0.00 | 0.00 | 77 | 1014.4 |
| 20260506125414 | 49 | 151 | 2.6 | 7.8 | 0.00 | 0.00 | 0.00 | 76 | 1014.4 |
| 20260506124916 | 49 | 146 | 1.7 | 6.1 | 0.00 | 0.00 | 0.00 | 76 | 1014.5 |
| 20260506124416 | 49 | 161 | 1.7 | 5.2 | 0.00 | 0.00 | 0.00 | 76 | 1014.5 |
| 20260506123657 | 49 | 153 | 1.7 | 5.2 | 0.00 | 0.00 | 0.00 | 76 | 1014.5 |
| 20260506123416 | 50 | 138 | 1.7 | 6.1 | 0.00 | 0.00 | 0.00 | 76 | 1014.4 |
| 20260506122656 | 50 | 153 | 2.6 | 6.1 | 0.00 | 0.00 | 0.00 | 76 | 1014.4 |
| 20260506122151 | 50 | 146 | 2.6 | 6.1 | 0.00 | 0.00 | 0.00 | 76 | 1014.3 |
| 20260506121645 | 50 | 136 | 2.6 | 5.2 | 0.00 | 0.00 | 0.00 | 76 | 1014.3 |
| 20260506121420 | 50 | 145 | 2.6 | 6.1 | 0.00 | 0.00 | 0.00 | 76 | 1014.3 |
| 20260506120632 | 50 | 143 | 2.6 | 7.0 | 0.00 | 0.00 | 0.00 | 75 | 1014.2 |
| 20260506120409 | 51 | 143 | 3.5 | 7.0 | 0.00 | 0.00 | 0.00 | 75 | 1014.2 |
| 20260506115911 | 51 | 144 | 3.5 | 6.1 | 0.00 | 0.00 | 0.00 | 75 | 1014.1 |
| 20260506115113 | 51 | 140 | 2.6 | 6.1 | 0.00 | 0.00 | 0.00 | 75 | 1014.1 |
| 20260506114608 | 51 | 136 | 2.6 | 4.3 | 0.00 | 0.00 | 0.00 | 74 | 1014.1 |
| 20260506114102 | 51 | 140 | 2.6 | 4.3 | 0.00 | 0.00 | 0.00 | 74 | 1014.1 |
| 20260506113600 | 51 | 144 | 2.6 | 3.5 | 0.00 | 0.00 | 0.00 | 73 | 1014.0 |
| 20260506113050 | 51 | 139 | 1.7 | 3.5 | 0.00 | 0.00 | 0.00 | 73 | 1013.9 |
| 20260506112825 | 51 | 142 | 0.9 | 2.6 | 0.00 | 0.00 | 0.00 | 74 | 1013.9 |
| 20260506112041 | 51 | 143 | 0.0 | 2.6 | 0.00 | 0.00 | 0.00 | 73 | 1013.9 |
| 20260506111532 | 52 | 143 | 0.9 | 3.5 | 0.00 | 0.00 | 0.00 | 72 | 1013.9 |
| 20260506111026 | 53 | 144 | 0.9 | 3.5 | 0.00 | 0.00 | 0.00 | 71 | 1013.6 |
| 20260506110520 | 54 | 169 | 0.0 | 1.7 | 0.00 | 0.00 | 0.00 | 69 | 1013.6 |
| 20260506110014 | 55 | 169 | 0.0 | 0.0 | 0.00 | 0.00 | 0.00 | 69 | 1013.6 |
| 20260506105509 | 55 | 169 | 0.0 | 0.0 | 0.00 | 0.00 | 0.00 | 67 | 1013.8 |
| 20260506105003 | 55 | 169 | 0.0 | 0.0 | 0.00 | 0.00 | 0.00 | 67 | 1013.8 |
| 20260506104728 | 55 | 169 | 0.0 | 0.0 | 0.00 | 0.00 | 0.00 | 67 | 1013.8 |
| 20260506103950 | 55 | 169 | 0.0 | 0.9 | 0.00 | 0.00 | 0.00 | 67 | 1013.6 |
| 20260506103450 | 56 | 169 | 0.0 | 1.7 | 0.00 | 0.00 | 0.00 | 66 | 1013.5 |
| 20260506102951 | 56 | 169 | 0.0 | 2.6 | 0.00 | 0.00 | 0.00 | 67 | 1013.5 |
| 20260506102451 | 56 | 171 | 0.0 | 2.6 | 0.00 | 0.00 | 0.00 | 67 | 1013.5 |
| 20260506101953 | 56 | 182 | 0.9 | 4.3 | 0.00 | 0.00 | 0.00 | 67 | 1013.5 |
| 20260506101456 | 56 | 182 | 2.6 | 5.2 | 0.00 | 0.00 | 0.00 | 68 | 1013.5 |
| 20260506100946 | 56 | 188 | 1.7 | 5.2 | 0.00 | 0.00 | 0.00 | 69 | 1013.4 |
| 20260506100447 | 56 | 186 | 1.7 | 3.5 | 0.00 | 0.00 | 0.00 | 70 | 1013.4 |
| 20260506095944 | 56 | 188 | 1.7 | 3.5 | 0.00 | 0.00 | 0.00 | 70 | 1013.4 |
| 20260506095445 | 56 | 203 | 2.6 | 4.3 | 0.00 | 0.00 | 0.00 | 71 | 1013.4 |
| 20260506094947 | 56 | 203 | 1.7 | 4.3 | 0.00 | 0.00 | 0.00 | 72 | 1013.4 |
| 20260506094444 | 56 | 216 | 0.9 | 3.5 | 0.00 | 0.00 | 0.00 | 72 | 1013.4 |
| 20260506093944 | 56 | 216 | 0.0 | 1.7 | 0.00 | 0.00 | 0.00 | 72 | 1013.4 |
| 20260506093444 | 56 | 216 | 0.0 | 0.0 | 0.00 | 0.00 | 0.00 | 72 | 1013.3 |
| 20260506092946 | 57 | 216 | 0.0 | 0.0 | 0.00 | 0.00 | 0.00 | 71 | 1013.4 |
| 20260506092454 | 57 | 216 | 0.0 | 1.7 | 0.00 | 0.00 | 0.00 | 71 | 1013.4 |
| 20260506092220 | 57 | 216 | 0.9 | 1.7 | 0.00 | 0.00 | 0.00 | 71 | 1013.3 |
| 20260506091442 | 57 | 216 | 0.9 | 2.6 | 0.00 | 0.00 | 0.00 | 71 | 1013.3 |
| 20260506090942 | 58 | 218 | 0.9 | 2.6 | 0.00 | 0.00 | 0.00 | 71 | 1013.3 |
| 20260506090436 | 58 | 240 | 0.9 | 1.7 | 0.00 | 0.00 | 0.00 | 71 | 1013.2 |
| 20260506085931 | 58 | 242 | 0.9 | 1.7 | 0.00 | 0.00 | 0.00 | 70 | 1013.2 |
| 20260506085424 | 58 | 242 | 0.9 | 2.6 | 0.00 | 0.00 | 0.00 | 70 | 1013.3 |
| 20260506084923 | 58 | 242 | 0.9 | 2.6 | 0.00 | 0.00 | 0.00 | 70 | 1013.2 |
| 20260506084654 | 58 | 242 | 1.7 | 2.6 | 0.00 | 0.00 | 0.00 | 70 | 1013.3 |
| 20260506083922 | 58 | 244 | 1.7 | 2.6 | 0.00 | 0.00 | 0.00 | 69 | 1013.2 |
| 20260506083422 | 58 | 245 | 1.7 | 2.6 | 0.00 | 0.00 | 0.00 | 69 | 1013.3 |
| 20260506082922 | 58 | 252 | 1.7 | 2.6 | 0.00 | 0.00 | 0.00 | 68 | 1013.3 |
| 20260506082702 | 59 | 259 | 0.9 | 2.6 | 0.00 | 0.00 | 0.00 | 68 | 1013.3 |
| 20260506081923 | 59 | 262 | 0.9 | 2.6 | 0.00 | 0.00 | 0.00 | 68 | 1013.2 |
| 20260506081423 | 59 | 263 | 0.9 | 2.6 | 0.00 | 0.00 | 0.00 | 67 | 1013.3 |
| 20260506080923 | 59 | 263 | 0.0 | 1.7 | 0.00 | 0.00 | 0.00 | 68 | 1013.2 |
| 20260506080421 | 59 | 263 | 0.0 | 0.0 | 0.00 | 0.00 | 0.00 | 68 | 1013.2 |
| 20260506073422 | 60 | 265 | 0.0 | 0.0 | 0.00 | 0.00 | 0.00 | 67 | 1012.9 |
| 20260506072922 | 60 | 264 | 0.0 | 0.0 | 0.00 | 0.00 | 0.00 | 67 | 1012.9 |
| 20260506072701 | 60 | 264 | 0.0 | 0.0 | 0.00 | 0.00 | 0.00 | 67 | 1012.8 |
| 20260506072143 | 60 | 264 | 0.0 | 0.0 | 0.00 | 0.00 | 0.00 | 66 | 1012.8 |
| 20260506071409 | 60 | 264 | 0.0 | 0.0 | 0.00 | 0.00 | 0.00 | 66 | 1012.7 |
| 20260506070905 | 60 | 264 | 0.0 | 0.0 | 0.00 | 0.00 | 0.00 | 66 | 1012.6 |
| 20260506070355 | 60 | 264 | 0.0 | 0.0 | 0.00 | 0.00 | 0.00 | 65 | 1012.6 |
| 20260506062307 | 62 | 264 | 0.0 | 0.9 | 0.00 | 0.00 | 0.00 | 62 | 1012.3 |
| 20260506061802 | 63 | 264 | 0.0 | 0.9 | 0.00 | 0.00 | 0.00 | 62 | 1012.3 |
| 20260506061253 | 63 | 264 | 0.9 | 2.6 | 0.00 | 0.00 | 0.00 | 61 | 1012.2 |
| 20260506061038 | 63 | 265 | 0.9 | 2.6 | 0.00 | 0.00 | 0.00 | 61 | 1012.2 |
| 20260506060241 | 63 | 267 | 0.9 | 2.6 | 0.00 | 0.00 | 0.00 | 61 | 1012.1 |
| 20260506051141 | 66 | 296 | 1.7 | 6.1 | 0.00 | 0.00 | 0.00 | 59 | 1011.6 |
| 20260506050636 | 66 | 278 | 1.7 | 6.1 | 0.00 | 0.00 | 0.00 | 59 | 1011.6 |
| 20260506050425 | 66 | 276 | 1.7 | 6.1 | 0.00 | 0.00 | 0.00 | 59 | 1011.6 |